449  
ASUS41 KBOX 251104  
RWRBOX  
 
REGIONAL WEATHER ROUNDUP  
NATIONAL WEATHER SERVICE BOSTON/NORTON MA  
600 AM EST THU FEB 25 2021  
 
NOTE: "FAIR" INDICATES FEW OR NO CLOUDS BELOW 12,000 FEET WITH NO  
SIGNIFICANT WEATHER AND/OR S TO VISIBILITY
.  
 
MAZALL-251200-  
EASTERN MASSACHUSETTS  
 
CITY SKY/WX TMP DP RH WIND PRES REMARKS
 
BOSTON PTCLDY 42 25 50 W21G30 29.76R  
BEVERLY PTCLDY 43 26 51 W18G26 29.73R  
LAWRENCE MOCLDY 43 27 53 W13G25 29.76R  
BEDFORD CLOUDY 42 26 53 W20G26 29.76R  
BLUE HILL N/A 38 25 59 W31G39 29.73R WCI 25  
NORWOOD CLEAR 43 25 49 W18G28 29.77R  
MARSHFIELD CLEAR 45 27 49 W16G32 29.74R  
PLYMOUTH CLEAR 43 26 51 W22G37 29.75R  
TAUNTON CLEAR 44 25 47 NW15G29 29.78R  
NEW BEDFORD CLEAR 46 25 43 W23G41 29.77R  

 
 
MAZALL-251200-  
CAPE COD AND THE ISLANDS  
 
CITY SKY/WX TMP DP RH WIND PRES REMARKS
 
FALMOUTH CLEAR 45 30 57 W14G23 29.73R  
HYANNIS PTCLDY 47 28 47 W15G31 29.71R  
CHATHAM MOCLDY 45 33 63 W8 29.73R  
PROVINCETOWN CLEAR 42 30 62 W24G33 29.74R  
NANTUCKET CLOUDY 44 35 70 W18G25 29.74R  
MARTHAS VNYRD MOCLDY 43 33 68 W13G21 29.75R  

 
 
MAZALL-251200-  
CENTRAL AND WESTERN MASSACHUSETTS  
 
CITY SKY/WX TMP DP RH WIND PRES REMARKS
 
WORCESTER CLOUDY 38 24 57 W14G25 29.79R WCI 30  
FITCHBURG MOCLDY 40 28 62 W18G29 29.79R WCI 31  
ORANGE MOCLDY 39 26 59 NW15G22 29.82R WCI 31  
SPRINGFIELD CLOUDY 39 24 56 W14G30 29.85R WCI 30  
WESTFIELD MOCLDY 39 24 55 W16G30 29.87R WCI 30  
NORTH ADAMS PTCLDY 37 22 54 W16G35 29.86R WCI 28  
PITTSFIELD PTCLDY 33 24 69 W23G36 29.86R WCI 21  

 
 
RIZALL-251200-  
RHODE ISLAND  
 
CITY SKY/WX TMP DP RH WIND PRES REMARKS
 
PROVIDENCE PTCLDY 43 26 51 NW21G35 29.81R  
NEWPORT CLEAR 44 28 53 NW23G37 29.80R  
BLOCK ISLAND PTCLDY 43 30 60 NW20G30 29.81R  
SMITHFIELD PTCLDY 39 26 59 NW12G30 29.81R WCI 32  
WESTERLY PTCLDY 43 24 47 NW13G28 29.82R  

 
 
CTZALL-251200-  
CONNECTICUT  
 
CITY SKY/WX TMP DP RH WIND PRES REMARKS
 
BRADLEY INTL MOCLDY 39 25 57 NW16G24 29.89R WCI 30  
HARTFORD PTCLDY 42 23 46 W10G25 29.90R  
BRIDGEPORT NOT AVBL  
DANBURY PTCLDY 41 23 48 NW9G22 29.93R  
GROTON PTCLDY 44 26 49 NW21G31 29.83R  
NEW HAVEN CLEAR 45 26 47 NW16G32 29.88R  
CHESTER FAIR 41 25 52 NW16G32 29.86R  
MERIDEN PTCLDY 41 23 48 NW15G23 29.91R  
WILLIMANTIC PTCLDY 40 24 53 W14G29 29.87R  
OXFORD PTCLDY 38 25 59 NW10G20 29.90R WCI 31  

 
 
MEZ002-015-021-024-NHZ003-005-008-011-012-014-VTZ005-008-251200-  
NORTHERN NEW ENGLAND  
 
CITY SKY/WX TMP DP RH WIND PRES REMARKS
 
PORTLAND ME PTCLDY 40 28 62 W23G31 29.66R WCI 30  
BANGOR ME CLOUDY 40 30 67 W14G24 29.47R  
CONCORD NH MOCLDY 37 23 56 NW24G36 29.77R WCI 26  
MANCHESTER NH PTCLDY 42 25 50 NW13G24 29.74R  
NASHUA NH CLOUDY 42 25 50 NW15G25 29.77R  
PORTSMOUTH NH PTCLDY 41 24 51 W21G31 29.71R WCI 32  
JAFFREY NH PTCLDY 38 22 52 NW9G20 29.77R WCI 31  
KEENE NH PTCLDY 39 22 50 NW9G25 29.81R  
BURLINGTON VT CLOUDY 29 24 82 N5 29.91R WCI 24  
MT. WASHINGTON SNOW 7 7 100 NW63G82 N/A VSB 0 WCI -24  

 
 
NYZ052-076-251200-  
EASTERN NEW YORK  
 
CITY SKY/WX TMP DP RH WIND PRES REMARKS
 
ALBANY PTCLDY 33 23 66 W20G32 29.93R WCI 21  
NEW YORK CITY PTCLDY 43 23 45 NW30G38 29.94R  

 
 
ANZALL-251200-  
MARINE OBSERVATIONS  
 
STATION/POSITION TIME TEMP WIND PRES VSBY WAVE
 
AIR SEA DIR/SP/G HT/PER  
(UTC) (F) (DEG/KT/KT) (MB) (MI) (FT/S)  
BOSTON BUOY 1040 43 39 270/ 23/ 29 1007.1R  
BUZZARDS BAY 1000 270/ 22/ 23 1007.9R  
NANTUCKET SOUND 1040 37 270/ 17/ 21 N/A  
MASS BAY-STELLWA 1004 44 280/ 23/ 31 1003.8R 1 7/8 4/ 4  
ISLE OF SHOALS 1000 45 270/ 26/ 28 1002.9R  
S OF BLOCK IS 1026 38 N/A 8/ 7  

 
   
.....................KEY......................
 
 
SKY/WX - SKY CONDITION/PRESENT WEATHER  
TMP - TEMPERATURE IN FAHRENHEIT  
DWPT - DEWPOINT IN FAHRENHEIT  
RH - RELATIVE HUMIDITY IN PERCENT  
WIND - DIRECTION AND SPEED IN MPH  
PRES - MEAN SEA LEVEL PRESSURE IN INCHES OF HG  
WCI - WIND CHILL INDEX  
VSB - VISIBILITY IN MILES  
HX - HEAT INDEX  
TC - TEMPERATURE IN CELSIUS  
VRB - VARIABLE WIND DIRECTION  
N/A - NOT AVAILABLE  
 
 
CLICK HERE TO GO TO PREVIOUS BULLETINS.

The Nexlab MA Page
The Nexlab RI Page
The Nexlab NH Page
The Nexlab CT Page Main Text Page